Lapse_Rate
5.3 5.3 5.7 5.7 5.3 4.9 5.2 4.8 4.6 4.7 4.6 4.9 5.7 6.6 6.9 3.8 3.8 3.9 5.3 5.5 5.3 4.6 3.4 2.8 3.7 4.3 3.8 3.3 2.7 2.7 3.4 3.2 2.7 3.1 2.8 2.6 2.1 2.0 2.2 3.6 3.7 3.9 4.2
5.4 4.9 3.7 4.7 4.5 4.4 3.9 4.3 4.6 4.0 4.6 5.3 5.7 5.9 4.6 3.8 4.2 4.4 4.3 4.0 4.1 4.0 3.8 3.7 3.1 3.0 2.8 2.9 2.7 3.2 2.5 3.2 2.2 3.2 2.5 4.0 3.8 2.7 2.3 2.1 2.5 2.7 4.4
3.8 3.4 3.1 3.1 4.2 4.5 3.8 3.7 4.3 4.4 4.9 5.0 5.4 4.5 4.1 4.1 4.0 3.7 3.8 3.6 4.1 4.8 4.6 3.7 3.6 2.5 2.7 2.9 2.3 2.5 2.9 3.4 2.6 2.8 3.5 3.2 3.3 2.1 1.8 2.3 2.2 2.8 2.4
4.5 3.1 2.1 2.0 1.8 2.1 2.4 3.2 3.3 3.4 4.2 4.8 5.2 5.2 5.7 6.0 5.8 5.4 5.2 4.5 4.6 4.7 4.5 4.2 3.7 2.6 2.7 2.3 2.5 2.4 2.9 3.8 4.4 3.5 3.4 2.5 2.3 3.1 3.8 2.4 2.3 1.5 2.7
4.2 3.7 2.5 1.9 1.6 2.3 2.1 2.7 3.3 3.7 4.2 4.3 5.1 4.9 4.9 5.4 4.6 4.1 4.1 4.2 4.0 4.5 4.3 4.0 3.5 2.6 2.3 2.4 1.7 2.5 3.6 3.4 3.6 2.8 2.4 2.6 3.2 2.5 3.5 4.0 3.5 4.0 3.2
5.1 4.3 3.3 2.9 2.6 2.8 2.6 2.9 3.4 4.2 4.8 5.0 4.8 4.7 4.4 5.0 4.5 3.8 4.2 4.3 4.2 4.3 4.2 4.3 3.5 3.5 2.8 1.7 2.1 2.7 3.4 3.4 2.3 2.2 1.9 2.7 3.7 3.4 3.6 3.9 4.1 4.2 4.7
6.1 4.8 4.3 3.8 3.8 3.4 3.2 3.6 3.9 4.2 4.7 5.3 5.1 4.6 4.2 4.2 4.4 3.9 4.4 4.5 4.1 4.2 4.1 4.0 3.4 3.2 3.5 2.8 2.5 3.3 3.2 2.4 2.3 1.7 2.4 3.1 3.0 2.9 3.1 3.4 4.1 4.0 4.4
6.3 4.6 3.8 3.6 4.1 4.2 3.9 3.8 4.1 4.2 4.7 4.7 4.9 4.3 4.7 4.6 4.7 4.8 4.4 4.6 4.4 4.0 3.8 3.4 3.5 1.6 2.2 2.3 2.8 1.6 1.0 1.1 1.4 1.8 2.3 1.9 2.5 2.6 3.6 3.6 3.9 4.0 4.0
6.5 5.2 4.6 4.2 3.7 4.0 3.8 3.5 4.0 4.2 4.6 4.9 5.1 5.0 4.5 4.8 4.4 4.4 3.6 3.8 3.6 3.4 2.8 2.7 2.1 1.2 1.2 1.5 0.9 1.1 0.8 1.3 1.0 1.1 1.5 2.2 2.0 2.6 3.5 3.4 4.1 4.3 5.2
6.2 6.6 6.5 5.8 4.4 3.5 3.3 3.5 3.9 4.4 5.0 5.8 5.5 5.4 4.5 4.1 4.5 2.7 2.7 3.4 2.9 2.5 1.9 1.6 1.5 1.0 0.6 1.1 1.0 0.8 0.6 0.5 0.6 0.6 1.3 1.5 2.3 3.1 3.3 3.9 4.1 4.5 5.5
5.0 5.2 5.4 5.7 4.7 4.4 3.8 3.6 3.8 4.8 5.3 5.6 4.6 5.3 4.8 3.6 3.1 2.8 2.5 2.6 2.2 1.9 1.7 2.7 1.9 0.5 0.7 0.8 0.1 0.2 0.1 0.9 0.8 1.1 2.1 2.8 3.1 3.5 3.7 4.0 4.4 5.0 3.6
2.3 2.8 3.9 4.1 4.8 4.5 5.4 5.4 5.0 4.6 5.6 5.4 5.1 3.8 3.9 3.0 2.5 1.5 2.3 1.4 2.7 3.4 3.1 2.3 1.1 1.5 1.3 0.1 0.1 0.2 1.0 1.4 1.9 2.2 2.6 3.3 4.6 4.1 4.0 4.1 4.0 3.6 3.5
2.0 2.0 1.5 1.9 3.9 3.9 4.3 5.8 5.1 3.9 4.1 5.2 3.5 2.8 1.9 1.7 2.5 2.5 2.0 2.0 1.8 1.1 1.2 1.7 1.1 0.8 -0.0 0.4 0.6 0.9 1.7 2.4 2.7 3.0 3.5 4.1 4.6 4.5 4.5 4.1 3.7 3.7 5.0
2.0 1.8 2.4 1.4 0.7 1.4 2.6 3.1 3.0 2.9 2.0 1.0 1.1 -0.3 0.2 0.1 0.4 -0.1 -0.5 -0.4 -0.2 0.2 0.6 0.6 0.5 0.3 0.4 0.8 1.2 2.0 2.4 2.8 3.3 4.0 4.2 4.9 5.0 4.8 4.4 4.3 4.0 4.5 4.0
2.8 2.5 2.0 1.2 -0.7 -2.1 -2.2 -2.3 -1.8 -2.5 -2.1 -1.7 -1.4 -2.0 -1.9 -2.1 -1.5 -1.2 -1.7 -1.0 -0.1 -0.0 0.5 0.5 0.3 0.8 1.3 1.7 2.1 2.7 2.9 3.3 3.9 4.6 5.4 5.5 4.7 3.1 3.4 3.1 1.5 1.4 1.5
3.1 2.8 1.4 0.1 -0.2 -2.2 -3.7 -3.5 -2.7 -2.7 -2.5 -2.4 -2.7 -3.1 -2.9 -2.1 -1.2 -0.2 -0.1 -0.6 0.1 0.1 0.2 0.2 0.5 0.9 2.1 0.9 1.7 2.9 3.2 3.6 3.8 3.7 2.7 3.4 3.5 3.1 2.8 2.7 2.7 2.6 1.9
2.2 1.6 0.7 -0.4 -1.2 -2.7 -3.2 -3.2 -3.4 -2.9 -2.4 -1.4 -0.9 -0.5 -0.1 -0.2 -0.4 -0.4 0.1 0.3 0.4 0.4 0.5 0.9 1.7 2.4 2.7 1.3 1.7 1.7 2.7 1.8 1.3 1.2 1.6 3.5 2.8 1.5 1.0 1.1 1.4 1.7 2.5
1.2 0.4 -1.9 -3.6 -3.7 -3.3 -2.3 -2.2 -1.4 -1.2 -0.9 -0.5 0.2 0.9 0.6 -0.1 0.1 0.2 0.3 0.2 0.7 1.0 1.5 2.3 2.7 2.4 1.7 1.4 1.6 1.4 0.8 0.7 0.8 0.6 0.7 0.6 0.3 0.9 0.9 0.3 -0.2 0.2 0.3
-0.4 -2.1 -3.0 -3.8 -3.8 -2.8 -2.0 -1.0 -0.4 0.6 1.3 1.2 0.9 0.8 0.6 0.1 0.3 0.3 0.5 1.2 1.9 2.6 3.1 2.8 1.0 0.9 0.9 1.3 1.5 1.5 0.8 1.0 0.7 0.8 1.0 0.8 0.5 1.7 2.2 0.9 0.6 0.7 1.1
-1.7 -2.6 -2.9 -2.7 -2.3 -1.9 -0.8 -0.0 0.7 1.2 1.4 1.7 1.7 1.3 1.3 1.2 1.1 1.3 1.4 2.4 3.3 3.5 2.2 1.4 1.4 1.4 1.1 1.6 1.7 1.3 0.3 0.5 0.5 0.7 1.0 1.7 1.5 2.2 2.6 1.9 1.7 1.9 2.5
-1.9 -1.8 -1.5 -1.5 -1.4 -0.6 0.1 0.7 1.8 2.6 3.1 2.7 2.3 2.2 2.5 2.6 2.5 2.9 3.1 2.6 1.4 0.4 1.1 0.4 0.2 0.5 1.1 1.4 1.8 1.5 0.0 0.2 1.0 1.2 1.2 1.1 2.2 3.0 3.6 3.9 3.1 3.8 3.8
-0.3 -0.1 -0.4 0.1 0.5 1.0 1.6 1.7 3.5 4.2 4.0 3.8 3.5 3.9 3.7 4.2 3.7 2.9 2.7 2.4 1.6 1.3 0.6 0.4 -0.3 -0.5 0.1 1.5 1.7 1.7 1.4 1.5 1.6 1.8 1.7 1.9 3.2 4.0 4.5 4.5 5.1 4.7 3.7
0.3 1.2 1.2 1.3 1.8 2.1 2.7 2.3 3.1 4.4 5.0 5.2 5.2 4.7 4.5 4.4 4.3 3.6 3.1 3.0 2.5 1.4 1.4 1.4 0.4 -0.0 -0.4 -0.3 1.2 2.2 2.7 2.5 2.4 2.6 2.8 3.4 4.0 4.4 4.4 5.5 5.6 4.1 3.1
1.8 2.8 2.7 2.6 2.8 4.2 3.7 3.0 3.4 4.4 4.9 4.2 4.0 3.6 3.0 2.9 3.0 3.2 3.0 2.5 2.3 2.6 2.9 2.5 1.3 1.0 1.1 0.8 1.1 1.6 1.8 2.9 3.2 3.1 3.1 3.0 3.5 3.6 4.7 5.2 5.4 4.8 4.3
2.8 2.1 1.7 2.0 2.5 3.7 4.4 4.8 4.4 4.1 3.6 3.6 3.8 3.4 2.8 2.7 1.8 0.8 2.0 1.9 1.7 2.3 2.4 2.1 2.8 1.5 2.0 2.4 2.6 3.3 3.4 2.8 3.7 2.3 2.4 3.4 4.0 4.7 5.2 5.7 6.0 5.4 5.2
1.7 -0.3 -0.1 -0.1 1.0 1.5 2.3 3.6 4.1 3.7 3.0 2.8 2.6 2.1 2.2 2.2 2.7 2.8 2.2 1.6 1.7 2.4 2.0 2.3 2.4 3.0 3.7 4.1 4.2 4.8 5.4 5.5 5.7 4.2 3.1 2.4 1.2 3.1 5.4 5.2 5.3 4.8 4.6
Wind_Speed
6 6 11 11 9 9 10 9 11 11 8 6 8 8 8 2 1 5 15 15 15 13 12 10 10 11 7 7 6 4 5 3 3 3 2 1 3 4 5 12 12 13 18
10 10 8 12 12 12 9 8 8 8 8 7 7 5 3 1 2 5 9 8 12 13 12 11 6 8 4 6 6 5 3 3 4 3 2 1 3 3 5 5 5 9 15
14 14 13 13 12 14 12 11 11 11 9 8 4 2 1 2 2 4 4 5 12 16 15 14 11 7 6 6 6 6 7 5 4 5 4 2 5 0 0 4 4 5 5
14 12 14 14 14 13 10 10 11 12 12 11 10 11 10 10 8 8 7 8 17 16 17 16 14 9 7 6 7 6 5 5 5 1 1 2 3 3 1 1 1 4 5
19 18 18 18 18 14 12 11 13 14 15 14 15 12 11 9 7 6 10 10 9 16 18 17 14 7 6 6 8 6 7 5 4 4 2 1 2 3 3 1 3 2 1
21 19 17 16 15 14 14 13 14 16 16 15 16 15 14 13 9 8 8 8 8 10 13 14 12 13 8 7 7 6 9 8 4 3 5 4 2 1 2 2 2 2 4
21 20 20 19 18 19 19 17 18 18 17 17 16 17 16 16 15 12 11 11 9 8 11 11 11 9 10 9 9 8 7 5 3 6 4 4 2 3 3 3 2 3 2
20 22 24 21 21 23 23 21 21 21 20 21 20 18 20 12 13 13 11 11 11 11 13 14 11 9 10 8 7 5 5 7 7 10 7 6 5 4 2 4 3 2 3
21 23 21 21 20 21 24 25 23 22 22 21 19 19 18 18 16 15 11 11 12 9 11 11 8 8 7 8 7 6 8 8 6 7 8 5 4 4 3 3 4 4 2
18 17 17 19 19 20 21 20 20 22 22 20 18 17 18 18 16 11 12 10 8 5 5 6 6 5 7 8 9 8 8 8 6 6 8 5 3 4 3 3 4 4 5
17 18 18 19 21 21 20 21 20 19 18 16 13 16 16 15 12 6 5 3 4 4 6 6 8 8 8 9 10 9 11 10 8 6 7 6 5 4 4 4 4 5 4
14 16 18 18 20 20 19 20 18 18 17 19 17 14 12 10 10 7 8 10 8 8 12 11 10 9 9 8 9 9 8 9 8 6 4 4 4 6 5 3 5 5 5
7 7 6 12 17 17 16 16 16 18 15 9 8 6 6 9 12 11 13 12 12 9 10 10 8 9 9 9 8 9 9 7 6 7 6 5 5 5 3 4 5 4 5
9 8 7 7 9 12 15 13 14 15 11 6 5 6 5 5 5 7 8 7 9 11 9 9 9 9 9 9 9 8 7 6 5 5 5 5 4 5 5 4 4 3 3
9 8 6 4 4 6 6 6 8 7 7 8 7 7 6 7 7 8 7 9 8 8 9 9 8 9 9 7 10 8 8 6 5 4 2 2 7 14 9 4 3 4 2
9 9 9 11 7 8 9 8 8 8 9 8 8 9 9 8 8 9 9 9 9 9 9 8 9 9 6 13 11 8 6 5 5 5 5 6 8 9 10 9 7 3 3
9 9 12 14 10 8 10 10 9 9 10 10 9 8 9 9 8 9 9 9 9 9 9 9 9 8 8 11 10 10 5 6 6 6 5 5 5 5 4 5 4 1 4
8 6 7 8 9 9 9 9 9 8 9 8 7 7 8 10 9 9 8 8 8 9 9 8 7 7 3 11 12 12 7 7 7 6 5 5 5 5 5 5 5 5 5
7 6 6 9 11 11 10 11 9 9 8 8 8 7 8 9 9 9 9 7 9 8 7 7 8 8 6 13 14 11 6 6 6 5 5 5 5 8 10 4 4 5 6
10 11 10 11 11 9 10 11 10 9 9 8 8 8 8 8 8 9 9 7 7 7 6 7 7 10 8 12 13 9 4 5 3 4 4 6 5 8 10 4 4 5 7
10 10 10 10 9 9 9 9 9 8 8 9 8 7 7 7 8 8 7 6 7 8 9 9 6 7 7 8 13 12 4 3 3 2 1 2 6 9 8 7 3 6 9
11 9 10 9 8 8 10 8 9 10 10 9 8 8 8 6 6 7 6 8 9 9 7 8 6 4 5 10 11 12 10 6 2 1 1 2 9 7 6 4 10 12 7
9 9 11 10 7 8 10 11 8 11 9 9 7 6 7 7 6 8 8 7 6 6 6 6 6 5 4 5 10 10 8 6 1 0 3 8 8 7 3 5 9 5 4
10 11 13 11 8 9 10 11 10 10 11 11 10 9 10 10 9 7 6 5 4 4 5 5 5 4 4 3 2 3 2 3 1 2 3 4 5 4 2 2 3 3 4
9 10 12 11 11 10 11 9 11 14 13 12 10 10 8 9 9 10 6 6 6 4 4 3 4 4 3 3 3 2 2 2 2 3 1 1 2 2 2 2 2 3 4
13 14 14 15 13 14 15 13 12 14 14 12 9 7 7 7 6 6 6 15 11 12 11 7 4 2 7 7 3 5 7 7 6 1 1 1 1 1 2 1 2 1 3
Wind_Direction
209 176 157 166 156 156 158 155 149 155 151 155 161 172 180 234 280 214 186 185 198 186 165 165 167 177 174 178 170 149 165 190 159 104 27 304 244 240 231 204 199 202 202
185 185 164 174 179 176 171 169 174 166 170 175 184 185 178 252 225 242 267 216 194 182 177 173 180 180 167 170 172 157 139 181 175 147 94 237 311 247 222 220 209 209 211
187 186 187 187 183 190 189 180 185 178 186 186 184 152 97 317 241 249 254 250 214 198 191 189 187 187 184 190 188 172 166 171 203 220 150 145 223 172 310 224 232 239 209
195 190 187 186 192 198 189 186 188 190 200 191 195 197 200 208 218 224 234 226 211 203 196 196 194 192 193 187 191 176 171 146 183 83 335 13 132 183 253 296 281 233 234
186 192 191 193 195 187 191 190 191 196 200 198 199 201 210 213 206 200 198 202 204 206 203 199 197 195 193 199 190 185 183 182 164 186 124 110 112 74 78 287 318 358 260
192 195 195 189 193 192 189 193 197 203 203 204 210 211 213 218 214 209 208 207 204 209 208 201 196 205 196 192 193 184 187 190 177 143 143 144 124 143 131 256 259 244 272
187 190 192 193 193 193 193 196 202 208 208 215 219 221 221 220 215 214 214 211 211 211 210 197 204 201 195 189 176 179 179 156 149 131 106 101 160 144 146 138 254 243 268
190 191 194 192 194 195 196 198 201 210 209 213 216 217 222 222 221 215 210 213 212 210 202 206 208 183 159 149 139 119 124 137 145 152 159 153 158 156 202 143 156 266 250
194 198 197 196 196 196 202 202 203 208 213 212 213 217 217 222 217 217 205 205 205 206 202 202 194 157 138 137 138 143 145 155 161 156 158 160 164 167 187 173 184 206 242
195 199 203 200 201 206 209 208 214 211 213 218 220 219 213 216 218 206 210 214 211 181 169 176 161 164 143 143 149 148 150 153 163 161 157 159 166 187 197 200 214 216 236
193 195 202 204 205 205 206 211 215 218 216 215 210 216 214 210 202 210 206 186 69 127 138 169 179 167 165 159 155 160 163 161 154 157 166 182 163 199 209 207 218 233 190
195 199 204 200 204 207 207 207 209 214 222 220 219 206 205 197 185 163 169 149 142 184 201 182 182 171 159 155 148 146 155 157 162 165 159 171 195 219 221 218 236 226 231
198 153 182 195 207 206 206 202 201 206 215 204 197 185 180 174 190 192 172 186 178 172 167 164 160 155 148 151 152 156 155 149 154 159 181 201 206 229 228 238 242 237 246
193 202 168 197 184 190 195 182 192 198 195 169 132 125 137 150 150 143 152 150 149 139 146 151 152 149 148 151 145 144 135 142 150 179 195 215 220 243 262 257 270 279 283
166 199 157 207 120 106 114 114 119 121 131 126 118 113 120 116 121 125 126 121 119 129 134 142 136 144 147 149 144 139 142 156 169 179 180 102 67 83 66 83 48 41 23
158 185 163 157 170 149 140 128 134 123 117 116 117 119 119 117 122 120 118 116 122 130 132 133 136 135 133 133 127 135 138 126 114 108 71 99 78 76 77 72 62 54 6
170 173 172 169 164 152 146 137 124 116 120 123 131 136 133 126 120 121 129 136 137 135 132 131 135 126 126 142 140 119 114 110 104 95 79 77 53 55 64 66 67 97 323
156 150 128 115 116 115 118 111 114 113 116 125 133 134 138 134 136 135 133 131 135 135 133 129 114 106 88 134 123 108 104 95 88 84 76 68 48 43 29 19 358 333 313
162 143 124 122 123 128 132 128 129 131 134 140 139 138 140 134 135 133 133 137 130 127 121 116 109 108 93 106 108 104 97 91 83 76 64 64 42 14 6 358 324 311 304
149 146 135 127 126 133 132 131 137 141 140 142 139 135 139 133 135 134 135 131 124 116 104 95 94 102 102 100 104 103 103 95 82 61 58 39 17 354 342 327 310 313 317
136 124 124 128 130 128 122 118 127 127 128 125 123 122 125 129 131 128 124 101 97 95 106 106 94 95 96 104 109 109 101 116 102 73 27 4 340 329 328 336 323 326 335
127 123 117 118 120 123 119 117 119 121 117 116 117 121 122 126 120 102 91 100 108 107 104 108 91 71 83 101 101 100 101 103 103 78 348 307 317 324 332 348 349 347 337
115 119 121 115 119 126 132 118 120 120 116 110 99 87 77 77 81 101 103 102 103 112 122 125 123 118 91 80 82 78 81 77 82 199 305 313 319 328 334 350 352 350 345
116 121 118 116 112 123 121 122 123 110 99 90 82 79 82 77 68 69 71 89 89 100 112 124 129 125 116 85 58 53 39 12 325 297 297 300 292 292 291 335 348 5 352
104 97 99 88 73 85 91 94 102 104 95 84 81 81 80 81 77 61 54 66 44 61 92 79 109 135 150 151 141 64 354 290 275 285 309 313 5 20 357 346 6 356 346
100 86 83 82 75 75 73 74 82 91 94 88 79 73 73 72 76 82 77 57 62 72 87 101 112 83 126 138 83 11 347 335 336 310 303 344 25 335 328 322 339 313 326